[[{"header":{"parameterUnit":"m.s-1","parameterCategory":1,"la1":30.2991,"la2":30.254,"lo1":-89.0895,"lo2":-89.0444,"dy":0.0017,"dx":0.0017,"nx":28,"ny":28,"refTime":"2024-06-28T09:00:00:Z","depth":0,"parameterNumber":2,"parameterNumberName":"U-component_of_WINDS"},"data":[0,0,0,0,0,0,0,0,0,0,0,0,0,0,0,0,0,0,0,0,0,0,0,0,0,0,0,0,0,0,0,0,0,0,0,0,0,0,0,0,0,0,0,0,0,0,0,0,0,0,0,0,0,0,0,0,0,0,4.0731,4.073,0,4.0698,4.0697,4.0697,4.053,4.0527,4.0523,4.0519,4.0486,4.0488,4.0491,0,0,0,0,0,0,0,0,0,0,0,0,0,4.0648,4.065,4.0731,4.073,4.073,4.0698,4.0697,4.0697,4.0531,4.0526,4.0522,4.0517,4.0485,4.0488,4.0491,0,0,0,0,0,0,0,0,0,0,0,0,0,4.0656,4.0651,4.0731,4.0643,4.0635,4.0698,4.0697,4.0697,4.0532,4.0526,4.052,4.0515,4.0484,4.0488,4.0492,4.0637,0,0,4.0505,4.0507,0,0,0,0,0,0,0,0,4.0656,4.0659,4.0656,4.0649,4.064,4.0612,4.0656,4.0677,4.0534,4.0571,4.0519,4.0512,4.0533,4.0532,4.0539,4.0635,4.0634,4.0505,4.0508,4.051,4.0511,0,0,0,0,0,0,0,4.0656,4.066,4.0717,4.0657,4.0647,4.0605,4.06,4.0659,4.0586,4.0568,4.0555,4.0554,4.0527,4.0536,4.0537,4.0633,4.0505,4.0509,4.0511,4.0513,4.0839,4.0845,0,0,0,0,0,0,4.0667,4.0661,4.0719,4.0717,4.0634,4.0611,4.0605,4.0627,4.0585,4.0572,4.0559,4.0546,4.0531,4.0533,4.0536,4.0696,4.0509,4.0513,4.0516,4.0833,4.0841,4.0847,0,0,0,0,0,0,4.0666,4.0674,4.072,4.0685,4.0688,4.0619,4.0645,4.063,4.0638,4.0578,4.0564,4.0581,4.0527,4.053,4.0611,4.0693,4.0515,4.0519,4.0826,4.0836,4.0844,4.1024,0,0,0,0,0,0,4.0665,4.0675,4.073,4.0688,4.069,4.0797,4.065,4.0633,4.0646,4.0629,4.0595,4.0584,4.0522,4.0606,4.0615,4.0696,4.0522,4.0818,4.083,4.0841,4.101,4.1038,4.1062,0,0,0,0,0,4.0662,4.0783,4.0733,4.0741,4.0758,4.0803,4.0804,4.073,4.0653,4.0706,4.0667,4.0585,4.0684,4.0616,4.0625,4.0708,4.0813,4.0827,4.084,4.0998,4.1033,4.1061,0,0,0,0,0,0,4.0838,4.0776,4.072,4.0831,4.0823,4.0774,4.084,4.077,4.0784,4.0767,4.0676,4.067,4.0764,4.0745,4.067,4.0843,4.0734,4.075,4.0851,4.0883,4.0908,4.0909,4.0526,0,0,0,0,0,4.089,4.0931,4.0875,4.0979,4.0977,4.091,4.0927,4.0871,4.0859,4.0854,4.0821,4.0813,4.0841,4.0862,4.0885,4.1008,4.0996,4.107,4.1096,4.1117,4.1131,4.1189,4.1219,4.0893,4.0893,4.0893,0,0,4.0997,4.0968,4.1,4.1013,4.1,4.1043,4.0908,4.0961,4.0992,4.0863,4.0935,4.0912,4.0896,4.0997,4.104,4.0984,4.1219,4.1135,4.1152,4.1154,4.1206,4.1237,4.1265,4.0902,4.0901,4.0899,0,0,4.1212,4.1197,4.1278,4.1267,4.1249,4.1203,4.1223,4.1184,4.1162,4.1234,4.1137,4.1172,4.1225,4.1215,4.1218,4.1428,4.1351,4.1439,4.1572,4.163,4.1655,4.1677,4.1747,4.1774,4.1454,4.1454,4.1454,0,4.1347,4.1409,4.1329,4.1387,4.1393,4.1278,4.1357,4.1352,4.1343,4.1349,4.1287,4.1347,4.1329,4.1423,4.1474,4.1482,4.1499,4.144,4.1658,4.168,4.1699,4.1764,4.1791,4.1464,4.1463,4.1462,4.1461,0,4.1572,4.1617,4.1685,4.1676,4.1691,4.1761,4.1689,4.1714,4.1657,4.1617,4.169,4.1664,4.1678,4.1697,4.1643,4.1784,4.1748,4.1675,4.1562,4.1742,4.1801,4.1826,4.1479,4.1475,4.1472,4.147,0,0,4.1896,4.1841,4.1867,4.1859,4.1829,4.1861,4.1925,4.1936,4.1957,4.1955,4.2003,4.2049,4.1978,4.1981,4.1925,4.1977,4.2137,4.1895,4.1893,4.1936,4.2285,4.2337,4.2367,4.2088,4.2093,4.2096,4.2284,0,4.2097,4.22,4.2129,4.2243,4.228,4.217,4.2224,4.2211,4.2176,4.2202,4.2163,4.2194,4.2102,4.2102,4.2149,4.2108,4.2205,4.2095,4.2128,4.213,4.213,4.2399,4.2455,4.2633,4.2307,4.2311,4.2314,0,4.2346,4.2351,4.2468,4.2426,4.2439,4.2489,4.2491,4.2519,4.2501,4.2472,4.2474,4.2404,4.246,4.2354,4.2429,4.2355,4.2365,4.2347,4.2352,4.2348,4.223,4.2397,4.2689,4.2714,4.2351,4.2348,4.2346,0,4.2562,4.26,4.2672,4.2671,4.2626,4.2662,4.2645,4.2621,4.2632,4.2635,4.264,4.2652,4.2657,4.2667,4.26,4.253,4.2682,4.2571,4.2655,4.2657,4.2688,4.2686,4.2981,4.2705,4.2705,4.2704,4.2704,0,4.2791,4.2865,4.2768,4.2813,4.2892,4.281,4.2891,4.2862,4.2842,4.2878,4.2786,4.2822,4.2734,4.2761,4.271,4.2776,4.2781,4.2756,4.2741,4.2761,4.2764,4.2763,4.2747,4.2711,4.271,4.2708,4.2707,0,4.3044,4.2983,4.3054,4.3005,4.2994,4.3054,4.3011,4.305,4.3008,4.3054,4.3061,4.2995,4.3021,4.2957,4.2975,4.294,4.3034,4.3002,4.3039,4.3027,4.3113,4.3104,4.3413,4.3447,4.3155,4.3158,4.3161,0,4.3191,4.3245,4.3201,4.3217,4.3204,4.3234,4.3243,4.3165,4.3178,4.316,4.32,4.3218,4.3227,4.3274,4.3227,4.3239,4.3203,4.331,4.3204,4.3221,4.3197,4.3193,4.3195,4.3331,4.3334,4.3337,4.334,0,4.3457,4.3423,4.3439,4.3445,4.3458,4.3459,4.3453,4.3473,4.3388,4.3408,4.3432,4.344,4.3456,4.3473,4.3475,4.3456,4.3383,4.3374,4.3393,4.3412,4.3429,4.3415,4.3093,4.3366,4.3364,4.3362,4.336,4.3359,4.3657,4.3698,4.3671,4.3692,4.3679,4.3675,4.3707,4.3668,4.3687,4.3692,4.3646,4.3679,4.3657,4.3651,4.364,4.3664,4.3615,4.3644,4.365,4.3657,4.3669,4.343,4.3665,4.3664,4.3663,4.3663,4.3662,0,4.3912,4.389,4.3909,4.3903,4.3918,4.3849,4.3838,4.3856,4.3886,4.3871,4.3882,4.3908,4.3924,4.3879,4.3888,4.3916,4.3883,4.3921,4.3915,4.3911,4.3716,4.3695,4.3947,4.3947,4.3947,4.3947,4.3947,4.3947,4.4047,4.411,4.4073,4.4128,4.4105,4.4135,4.4135,4.413,4.4117,4.415,4.4162,4.4132,4.4105,4.4111,4.4122,4.4108,4.4113,4.4162,4.4137,4.3954,4.3925,4.3899,4.3879,4.4165,4.4166,4.4329,4.433,4.4332]},{"header":{"parameterUnit":"m.s-1","parameterCategory":1,"la1":30.2991,"la2":30.254,"lo1":-89.0895,"lo2":-89.0444,"dy":0.0017,"dx":0.0017,"nx":28,"ny":28,"refTime":"2024-06-28T09:00:00:Z","depth":0,"parameterNumber":3,"parameterNumberName":"V-component_of_WINDS"},"data":[0,0,0,0,0,0,0,0,0,0,0,0,0,0,0,0,0,0,0,0,0,0,0,0,0,0,0,0,0,0,0,0,0,0,0,0,0,0,0,0,0,0,0,0,0,0,0,0,0,0,0,0,0,0,0,0,0,0,4.3505,4.3507,0,4.3648,4.3649,4.3651,4.364,4.3638,4.3635,4.3633,4.3773,4.3779,4.3784,0,0,0,0,0,0,0,0,0,0,0,0,0,4.3215,4.322,4.3505,4.3507,4.3509,4.3647,4.3649,4.3651,4.364,4.3637,4.3635,4.3632,4.3771,4.3778,4.3785,0,0,0,0,0,0,0,0,0,0,0,0,0,4.3347,4.3222,4.3505,4.352,4.3523,4.3647,4.3649,4.3652,4.3641,4.3637,4.3634,4.3631,4.3769,4.3777,4.3786,4.3902,0,0,4.3812,4.3815,0,0,0,0,0,0,0,0,4.334,4.3358,4.3516,4.3519,4.3523,4.3623,4.3598,4.3735,4.3641,4.3596,4.3633,4.363,4.3725,4.3737,4.3771,4.3909,4.3915,4.3812,4.3818,4.3821,4.3824,0,0,0,0,0,0,0,4.333,4.3351,4.3561,4.3518,4.3522,4.3517,4.3532,4.3624,4.3676,4.3599,4.3599,4.3616,4.3726,4.3762,4.3774,4.3917,4.3812,4.382,4.3825,4.3828,4.4151,4.4154,0,0,0,0,0,0,4.3319,4.3344,4.3557,4.3566,4.3422,4.3524,4.3542,4.3594,4.3675,4.3685,4.3619,4.3615,4.3749,4.3764,4.3779,4.3916,4.3821,4.3829,4.3834,4.4147,4.4151,4.4155,0,0,0,0,0,0,4.3313,4.3338,4.3551,4.3455,4.3481,4.3533,4.3591,4.3598,4.3634,4.369,4.3699,4.3647,4.3747,4.3767,4.387,4.3921,4.3833,4.3841,4.4143,4.4148,4.4153,4.4195,0,0,0,0,0,0,4.3304,4.3336,4.3383,4.3456,4.3487,4.3644,4.3595,4.3603,4.365,4.3646,4.3719,4.3727,4.3746,4.3858,4.3879,4.3931,4.3848,4.4139,4.4145,4.4152,4.4189,4.4201,4.4211,0,0,0,0,0,4.3294,4.3389,4.3386,4.3411,4.3547,4.3647,4.3664,4.3686,4.3654,4.37,4.3735,4.3725,4.3912,4.3869,4.3892,4.3948,4.4136,4.4144,4.4151,4.4184,4.4198,4.421,0,0,0,0,0,0,4.332,4.3399,4.3396,4.3518,4.3576,4.3645,4.3704,4.3701,4.3767,4.3761,4.3783,4.3799,4.3903,4.3936,4.3886,4.4061,4.4019,4.4032,4.4036,4.405,4.4061,4.405,4.3855,0,0,0,0,0,4.334,4.3417,4.3481,4.3582,4.3611,4.3652,4.3697,4.3708,4.3768,4.3792,4.3835,4.3891,4.3961,4.4008,4.4077,4.4194,4.4207,4.4243,4.4254,4.4263,4.4273,4.4332,4.4347,4.418,4.418,4.418,0,0,4.3382,4.3435,4.3482,4.3589,4.3635,4.371,4.3673,4.3756,4.381,4.3804,4.3904,4.3937,4.4,4.411,4.4161,4.4141,4.4322,4.4273,4.4279,4.4285,4.4341,4.4357,4.4371,4.4186,4.4185,4.4184,0,0,4.3497,4.3547,4.3634,4.368,4.375,4.3776,4.3797,4.3866,4.3888,4.3989,4.3984,4.4048,4.4171,4.4215,4.4254,4.438,4.4371,4.4402,4.4457,4.4515,4.4528,4.4539,4.458,4.4595,4.4412,4.4412,4.4412,0,4.354,4.3656,4.3679,4.3761,4.3806,4.3804,4.389,4.3933,4.4021,4.4051,4.4028,4.4179,4.4222,4.434,4.437,4.4403,4.4423,4.4393,4.4524,4.4536,4.4547,4.4586,4.4602,4.4415,4.4415,4.4414,4.4414,0,4.3703,4.3783,4.3844,4.393,4.3982,4.4066,4.4097,4.4147,4.4152,4.418,4.4279,4.4331,4.4407,4.4436,4.4444,4.4553,4.4538,4.452,4.4477,4.4566,4.4603,4.4618,4.4419,4.4418,4.4417,4.4417,0,0,4.3839,4.3934,4.3956,4.3992,4.4068,4.4128,4.4209,4.4286,4.4325,4.4385,4.4451,4.4553,4.4535,4.4579,4.459,4.4641,4.4731,4.4615,4.4617,4.4632,4.485,4.4861,4.4879,4.4727,4.473,4.4732,4.4843,0,4.3958,4.4105,4.4126,4.4254,4.4325,4.4322,4.4392,4.4443,4.447,4.4531,4.4559,4.463,4.4603,4.4629,4.4679,4.471,4.4775,4.4702,4.4784,4.4787,4.4766,4.4899,4.4913,4.5015,4.4858,4.4861,4.4863,0,4.4118,4.4182,4.4317,4.4378,4.4408,4.4472,4.454,4.4601,4.4657,4.4672,4.4719,4.4723,4.4802,4.4757,4.4865,4.4815,4.4849,4.4869,4.4873,4.488,4.4829,4.4906,4.5049,4.5063,4.4886,4.4885,4.4883,0,4.4199,4.4319,4.4414,4.4446,4.4521,4.4564,4.4596,4.465,4.4693,4.4752,4.4779,4.4846,4.4882,4.4933,4.4953,4.4919,4.5057,4.5015,4.5068,4.5068,4.5096,4.5094,4.5244,4.5123,4.5123,4.5123,4.5122,0,4.4329,4.441,4.4451,4.4509,4.4598,4.462,4.4707,4.4737,4.4784,4.4845,4.4846,4.4903,4.4928,4.4987,4.5003,4.5086,4.5103,4.5115,4.5118,4.5114,4.5112,4.5135,4.5127,4.5127,4.5126,4.5125,4.5124,0,4.4434,4.4465,4.4568,4.4629,4.4646,4.4709,4.476,4.4814,4.4839,4.4915,4.4935,4.4973,4.5042,4.5067,4.5152,4.5162,4.5258,4.5256,4.5239,4.5239,4.529,4.5283,4.5458,4.548,4.5347,4.5349,4.535,0,4.4514,4.4576,4.4644,4.4685,4.4719,4.4787,4.483,4.4852,4.4896,4.4962,4.5007,4.5076,4.5133,4.5243,4.5276,4.5339,4.5337,4.5394,4.5346,4.5339,4.5333,4.5328,4.5332,4.5402,4.5403,4.5404,4.5405,0,4.465,4.4661,4.4725,4.4792,4.4844,4.4898,4.495,4.4983,4.5012,4.5061,4.5132,4.5176,4.5261,4.5328,4.5392,4.5422,4.5417,4.542,4.5435,4.543,4.5416,4.542,4.526,4.5416,4.5414,4.5414,4.5413,4.5413,4.4743,4.4796,4.4851,4.492,4.4961,4.5009,4.5061,4.5092,4.5153,4.5225,4.5233,4.5308,4.5358,4.5443,4.5476,4.5532,4.5517,4.554,4.5545,4.5549,4.5551,4.5409,4.5545,4.5544,4.5544,4.5544,4.5544,0,4.4875,4.491,4.4973,4.5046,4.5099,4.5091,4.5147,4.5191,4.5258,4.5306,4.5361,4.544,4.5504,4.5541,4.5604,4.5642,4.5641,4.5657,4.5653,4.5659,4.5564,4.5543,4.5657,4.5657,4.5657,4.5657,4.5657,4.5657,4.4951,4.5039,4.5056,4.5163,4.5197,4.5272,4.5303,4.5346,4.5383,4.5472,4.5526,4.555,4.5592,4.5657,4.5714,4.5723,4.5744,4.5762,4.5769,4.5678,4.5667,4.5655,4.5636,4.5767,4.5768,4.5859,4.586,4.5861]}]]